Location: Sternwarte ZA, Rosenfeld-Brittheim
(48.2889°N, 8.6789°E)
Time: 10:05:22
(UTC+02:00)

ISS - Pass Details

Date: 15 July 2018
Orbit: 402 x 408 km, 51.6° (Epoch: 19 July)

Event Time Altitude Azimuth Distance (km) Brightness Sun altitude
Rises 04:57:18 0° 289° (WNW) 2,334 -0.3 -6.4°
Reaches altitude 10° 04:59:24 10° 293° (WNW) 1,473 -1.2 -6.1°
Maximum altitude 05:02:40 59° 14° (NNE) 477 -3.1 -5.7°
Drops below altitude 10° 05:05:56 10° 96° (E) 1,471 -0.3 -5.3°
Sets 05:08:02 0° 100° (E) 2,331 0.7 -5.0°
